Regional Weather Roundup
Issued by NWS Burlington, VT

Home | Current Version | Previous Version | Text Only | Print | Product List | Glossary On
Versions: 1 2 3 4 5 6 7 8 9 10 11 12 13 14 15 16 17 18 19 20 21 22 23 24 25 26 27 28 29 30 31 32 33 34 35 36 37 38 39 40 41 42 43 44 45 46 47 48 49 50
000
ASUS41 KBTV 211230
RWRBTV
VERMONT REGIONAL WEATHER ROUNDUP
NATIONAL WEATHER SERVICE BURLINGTON VT
800 AM EDT TUE OCT 21 2014

NOTE: "FAIR" INDICATES FEW OR NO CLOUDS BELOW 12,000 FEET WITH NO
SIGNIFICANT WEATHER AND/OR OBSTRUCTIONS TO VISIBILITY.

* THESE REPORTS ARE NOT UNDER NWS QUALITY CONTROL AND/OR DO NOT
  REPORT WEATHER SUCH AS PRECIPITATION AND FOG.

VTZ001>019-211300-
_____VERMONT_____


CITY           SKY/WX    TMP DP  RH WIND       PRES   REMARKS
BURLINGTON     CLOUDY    45  41  86 E5        29.95R
6HR MIN TEMP:  45; 6HR MAX TEMP:  48; 6HR PCP:  0.08;

MONTPELIER     CLOUDY    41  39  93 CALM      30.00R
6HR MIN TEMP:  39; 6HR MAX TEMP:  41; 6HR PCP:  0.13;

MORRISVILLE    CLOUDY    41  39  93 CALM      29.99R
6HR MIN TEMP:  38; 6HR MAX TEMP:  41; 6HR PCP:  0.08;

ST. JOHNSBURY*   N/A     39  38  96 MISG      29.98R
6HR MIN TEMP:  38; 6HR MAX TEMP:  39; 6HR PCP:  0.06;

MIDDLEBURY*    LGT RAIN  46  46 100 N5        29.94R
6HR MIN TEMP:  44; 6HR MAX TEMP:  50; 6HR PCP:  0.03;

RUTLAND*       CLOUDY    46  39  76 S13       29.94R
6HR MIN TEMP:  45; 6HR MAX TEMP:  46;

SPRINGFIELD    CLOUDY    44  43  96 CALM      29.98R FOG
6HR MIN TEMP:  43; 6HR MAX TEMP:  44; 6HR PCP:  0.02;

HIGHGATE*      DRIZZLE   44  41  91 E5        29.97R
6HR MIN TEMP:  43; 6HR MAX TEMP:  45;

NEWPORT*       DRIZZLE  N/A N/A N/A CALM      30.00R
BENNINGTON     CLOUDY    48  43  82 CALM      29.92R
6HR MIN TEMP:  47; 6HR MAX TEMP:  52; 6HR PCP: TRACE;

SUTTON*          N/A     39 N/A N/A MISG        N/A
MT. MANSFIELD*   N/A     34 N/A N/A SE9         N/A

_____LAKE CHAMPLAIN_____


CITY           SKY/WX    TMP DP  RH WIND       PRES   REMARKS
BURTON ISLAND*   N/A     48  43  81 NE3         N/A
COLCHESTER RF*   N/A     46  45  93 SE6         N/A
DIAMOND ISL*     N/A     48  43  81 NE1         N/A

$$

NYZ007-026>031-035-052-083-211300-
_____NORTHERN NEW YORK_____


CITY           SKY/WX    TMP DP  RH WIND       PRES   REMARKS
PLATTSBURGH    LGT RAIN  44  43  96 CALM      29.95R
6HR MIN TEMP:  43; 6HR MAX TEMP:  44; 6HR PCP:  0.06;

SARANAC LAKE   LGT RAIN  40  39  97 NE5       29.89R
6HR MIN TEMP:  40; 6HR MAX TEMP:  41; 6HR PCP:  0.12;

MASSENA        CLOUDY    44  42  93 E12       29.95R
6HR MIN TEMP:  43; 6HR MAX TEMP:  44; 6HR PCP:  0.02;

OGDENSBURG*    DRIZZLE   45  45 100 E8        29.91R
POTSDAM*       CLOUDY    45  45 100 E6        29.92R FOG
WATERTOWN      CLOUDY    50  42  74 E6        29.85R
6HR MIN TEMP:  50; 6HR MAX TEMP:  51; 6HR PCP:  0.01;

FT DRUM        CLOUDY    46  43  87 SE13      29.85R
                                      6HR PCP:  0.02;

ALBANY         LGT RAIN  49  46  90 N3        29.91S
6HR MIN TEMP:  47; 6HR MAX TEMP:  52; 6HR PCP:  0.08;

GLENS FALLS    LGT RAIN  46  44  93 CALM      29.92R
6HR MIN TEMP:  44; 6HR MAX TEMP:  46; 6HR PCP:  0.02;


$$
NHZ002-005-011-211300-
_____NEW HAMPSHIRE_____


CITY           SKY/WX    TMP DP  RH WIND       PRES   REMARKS
LEBANON        CLOUDY    44  40  85 N3        29.97R
6HR MIN TEMP:  44; 6HR MAX TEMP:  45; 6HR PCP: TRACE;

KEENE          CLOUDY    45  37  76 N3        29.97R
6HR MIN TEMP:  45; 6HR MAX TEMP:  45;

MT WASHINGTON  FOG       30  30 100 SW21G28     N/A  VSB 1/16WCI  17
6HR MIN TEMP:  25; 6HR MAX TEMP:  30; 6HR PCP:  0.13;

PLYMOUTH       CLOUDY    40  40 100 E3        30.01R
6HR MIN TEMP:  40; 6HR MAX TEMP:  40;

WHITEFIELD     LGT RAIN  40  38  93 CALM      29.98R
6HR MIN TEMP:  37; 6HR MAX TEMP:  40; 6HR PCP:  0.04;


$$

_____REGIONAL QUEBEC LOCATIONS_____


CITY           SKY/WX    TMP DP  RH WIND       PRES   REMARKS
MONTREAL       LGT RAIN  43  37  81 NE15      29.99R
QUEBEC CITY    PTSUNNY   36  30  80 N6        30.08R
SHERBROOKE     LGT RAIN  41  37  87 E6        30.00R

_____REGIONAL ONTARIO LOCATIONS_____


CITY           SKY/WX    TMP DP  RH WIND       PRES   REMARKS
OTTAWA         LGT RAIN  39  39 100 NE16      29.95R

______KEY______
VSB  - VISIBILITY IN MILES
WCI  - WIND CHILL INDEX
HX   - HEAT INDEX
$$



USA.gov is the U.S. government's official web portal to all federal, state and local government web resources and services.